When you browse on this site, cookies collect data to enhance your experience and personalize the content and advertising you see.
Visit our Privacy Policy to learn more. By continuing to use the site, you agree to this use of cookies and data.
  • In Schweiz
  • Länderverzeichnis
  • Für 7 Tage
  • Wassertemperatur
  • Satellitenkarten
  • Wetterkarte
  • Widgets
  • user-avatar
    Anmelden

    Stündliche Wetter Nürtingen

    Heute, 24 Mai, Freitag

    Zeit Temperatur Niederschläge Wind Luftdruck Luftfeuchtigkeit
    00:00 +11°C° 0 mm 1 m/S 738 mmHg 84%
    01:00 +11°C° 0 mm 1 m/S 738 mmHg 85%
    02:00 +11°C° 0 mm 1 m/S 738 mmHg 85%
    03:00 +10°C° 0 mm 1 m/S 737 mmHg 85%
    04:00 +10°C° 0 mm 1 m/S 737 mmHg 86%
    05:00 +11°C° 0 mm 1 m/S 737 mmHg 82%
    06:00 +13°C° 0 mm 1 m/S 737 mmHg 78%
    07:00 +14°C° 0 mm 1 m/S 737 mmHg 74%
    08:00 +16°C° 0 mm 1 m/S 737 mmHg 67%
    09:00 +19°C° 0 mm 1 m/S 737 mmHg 61%
    10:00 +21°C° 0 mm 1 m/S 737 mmHg 55%
    11:00 +22°C° 0 mm 1 m/S 737 mmHg 53%
    12:00 +23°C° 0 mm 1 m/S 737 mmHg 50%
    13:00 +24°C° 0 mm 1 m/S 736 mmHg 47%
    14:00 +24°C° 0 mm 1 m/S 736 mmHg 48%
    15:00 +24°C° 0 mm 1 m/S 736 mmHg 48%
    16:00 +24°C° 0 mm 1 m/S 735 mmHg 49%
    17:00 +23°C° 0 mm 1 m/S 735 mmHg 54%
    18:00 +21°C° 0 mm 1 m/S 735 mmHg 60%
    19:00 +20°C° 0 mm 1 m/S 735 mmHg 66%
    20:00 +18°C° 0 mm 1 m/S 735 mmHg 71%
    21:00 +15°C° 0 mm 0 m/S 735 mmHg 75%
    22:00 +13°C° 0 mm 0 m/S 735 mmHg 80%
    23:00 +13°C° 0 mm 0 m/S 735 mmHg 81%

    Morgen, 25 Mai, Samstag

    Zeit Temperatur Niederschläge Wind Luftdruck Luftfeuchtigkeit
    00:00 +12°C° 0 mm 0 m/S 735 mmHg 82%
    01:00 +12°C° 0 mm 0 m/S 735 mmHg 83%
    02:00 +12°C° 0 mm 0 m/S 735 mmHg 84%
    03:00 +11°C° 0 mm 0 m/S 735 mmHg 85%
    04:00 +11°C° 0 mm 0 m/S 735 mmHg 86%
    05:00 +12°C° 0 mm 0 m/S 735 mmHg 82%
    06:00 +14°C° 0 mm 0 m/S 736 mmHg 79%
    07:00 +15°C° 0 mm 0 m/S 736 mmHg 76%
    08:00 +16°C° 0 mm 0 m/S 736 mmHg 73%
    09:00 +19°C° 0 mm 1 m/S 736 mmHg 70%
    10:00 +21°C° 0 mm 1 m/S 736 mmHg 68%
    11:00 +21°C° 0.2 mm 1 m/S 736 mmHg 68%
    12:00 +20°C° 0.2 mm 2 m/S 736 mmHg 68%
    13:00 +21°C° 0.2 mm 2 m/S 736 mmHg 68%
    14:00 +20°C° 0.5 mm 2 m/S 736 mmHg 70%
    15:00 +20°C° 0.5 mm 2 m/S 736 mmHg 72%
    16:00 +20°C° 0.5 mm 2 m/S 735 mmHg 74%
    17:00 +19°C° 0.8 mm 2 m/S 736 mmHg 77%
    18:00 +18°C° 0.8 mm 2 m/S 736 mmHg 81%
    19:00 +18°C° 0.8 mm 1 m/S 736 mmHg 84%
    20:00 +16°C° 0.1 mm 1 m/S 736 mmHg 86%
    21:00 +15°C° 0.1 mm 1 m/S 736 mmHg 88%
    22:00 +14°C° 0.1 mm 1 m/S 737 mmHg 89%
    23:00 +13°C° 0.2 mm 1 m/S 737 mmHg 91%

    übermorgen, 26 Mai, Sonntag

    Zeit Temperatur Niederschläge Wind Luftdruck Luftfeuchtigkeit
    00:00 +13°C° 0.2 mm 1 m/S 737 mmHg 92%
    01:00 +12°C° 0.2 mm 2 m/S 737 mmHg 94%
    02:00 +12°C° 0 mm 2 m/S 737 mmHg 94%
    03:00 +12°C° 0 mm 2 m/S 737 mmHg 95%
    04:00 +12°C° 0 mm 2 m/S 737 mmHg 96%
    05:00 +12°C° 0 mm 2 m/S 737 mmHg 94%
    06:00 +12°C° 0 mm 3 m/S 737 mmHg 91%
    07:00 +12°C° 0 mm 3 m/S 737 mmHg 89%
    08:00 +13°C° 0 mm 3 m/S 737 mmHg 79%
    09:00 +16°C° 0 mm 3 m/S 737 mmHg 69%
    10:00 +17°C° 0 mm 4 m/S 737 mmHg 59%
    11:00 +18°C° 0 mm 4 m/S 737 mmHg 57%
    12:00 +18°C° 0 mm 3 m/S 737 mmHg 54%
    13:00 +19°C° 0 mm 3 m/S 737 mmHg 52%
    14:00 +19°C° 0 mm 3 m/S 737 mmHg 54%
    15:00 +20°C° 0 mm 3 m/S 737 mmHg 57%
    16:00 +20°C° 0 mm 3 m/S 736 mmHg 59%
    17:00 +20°C° 0 mm 2 m/S 736 mmHg 65%
    18:00 +19°C° 0 mm 2 m/S 736 mmHg 70%
    19:00 +19°C° 0 mm 1 m/S 735 mmHg 76%
    20:00 +18°C° 0 mm 1 m/S 735 mmHg 79%
    21:00 +16°C° 0 mm 1 m/S 735 mmHg 83%
    22:00 +14°C° 0 mm 2 m/S 735 mmHg 86%
    23:00 +14°C° 0 mm 2 m/S 735 mmHg 86%

    27 Mai, Montag

    Zeit Temperatur Niederschläge Wind Luftdruck Luftfeuchtigkeit
    00:00 +13°C° 0 mm 2 m/S 735 mmHg 87%
    01:00 +13°C° 0 mm 2 m/S 735 mmHg 87%
    02:00 +13°C° 0 mm 2 m/S 734 mmHg 87%
    03:00 +13°C° 0 mm 2 m/S 734 mmHg 88%
    04:00 +13°C° 0 mm 1 m/S 734 mmHg 89%
    05:00 +14°C° 0 mm 2 m/S 734 mmHg 88%
    06:00 +15°C° 0 mm 2 m/S 734 mmHg 86%
    07:00 +16°C° 0 mm 2 m/S 734 mmHg 85%
    08:00 +17°C° 0.2 mm 3 m/S 734 mmHg 81%
    09:00 +18°C° 0.2 mm 3 m/S 734 mmHg 77%
    10:00 +19°C° 0.2 mm 4 m/S 734 mmHg 74%
    11:00 +19°C° 0.5 mm 4 m/S 734 mmHg 74%
    12:00 +19°C° 0.5 mm 4 m/S 733 mmHg 74%
    13:00 +20°C° 0.5 mm 4 m/S 733 mmHg 75%
    14:00 +20°C° 0.3 mm 4 m/S 733 mmHg 73%
    15:00 +20°C° 0.3 mm 4 m/S 732 mmHg 72%
    16:00 +20°C° 0.3 mm 4 m/S 732 mmHg 70%
    17:00 +19°C° 0.1 mm 4 m/S 732 mmHg 73%
    18:00 +18°C° 0.1 mm 3 m/S 732 mmHg 75%
    19:00 +17°C° 0.1 mm 3 m/S 732 mmHg 77%
    20:00 +16°C° 0 mm 2 m/S 732 mmHg 82%
    21:00 +14°C° 0 mm 2 m/S 732 mmHg 86%
    22:00 +13°C° 0 mm 1 m/S 733 mmHg 90%
    23:00 +13°C° 0 mm 1 m/S 732 mmHg 91%

    28 Mai, Dienstag

    Zeit Temperatur Niederschläge Wind Luftdruck Luftfeuchtigkeit
    00:00 +12°C° 0 mm 1 m/S 732 mmHg 91%
    01:00 +12°C° 0 mm 1 m/S 732 mmHg 92%
    02:00 +12°C° 0.1 mm 1 m/S 732 mmHg 92%
    03:00 +12°C° 0.1 mm 1 m/S 732 mmHg 91%
    04:00 +12°C° 0.1 mm 1 m/S 731 mmHg 91%
    05:00 +12°C° 0.1 mm 1 m/S 731 mmHg 90%
    06:00 +12°C° 0.1 mm 1 m/S 731 mmHg 89%
    07:00 +13°C° 0.1 mm 2 m/S 731 mmHg 88%
    08:00 +13°C° 0.2 mm 2 m/S 732 mmHg 84%
    09:00 +14°C° 0.2 mm 2 m/S 732 mmHg 81%
    10:00 +14°C° 0.2 mm 2 m/S 732 mmHg 77%
    11:00 +15°C° 0.2 mm 2 m/S 732 mmHg 76%
    12:00 +15°C° 0.2 mm 2 m/S 732 mmHg 74%
    13:00 +16°C° 0.2 mm 2 m/S 732 mmHg 73%
    14:00 +16°C° 0.2 mm 1 m/S 732 mmHg 74%
    15:00 +16°C° 0.2 mm 1 m/S 732 mmHg 75%
    16:00 +16°C° 0.2 mm 1 m/S 732 mmHg 75%
    17:00 +15°C° 0.2 mm 1 m/S 732 mmHg 79%
    18:00 +14°C° 0.2 mm 1 m/S 732 mmHg 83%
    19:00 +14°C° 0.2 mm 1 m/S 732 mmHg 87%
    20:00 +13°C° 0.3 mm 1 m/S 733 mmHg 89%
    21:00 +13°C° 0.3 mm 1 m/S 733 mmHg 91%
    22:00 +12°C° 0.3 mm 1 m/S 733 mmHg 93%
    23:00 +12°C° 0.3 mm 1 m/S 733 mmHg 94%

    29 Mai, Mittwoch

    Zeit Temperatur Niederschläge Wind Luftdruck Luftfeuchtigkeit
    00:00 +11°C° 0.3 mm 1 m/S 733 mmHg 95%
    01:00 +11°C° 0.3 mm 1 m/S 733 mmHg 96%
    02:00 +10°C° 0.5 mm 2 m/S 733 mmHg 96%
    03:00 +10°C° 0.5 mm 2 m/S 734 mmHg 96%
    04:00 +10°C° 0.5 mm 2 m/S 734 mmHg 97%
    05:00 +10°C° 0.8 mm 2 m/S 734 mmHg 97%
    06:00 +10°C° 0.8 mm 3 m/S 734 mmHg 96%
    07:00 +10°C° 0.8 mm 3 m/S 734 mmHg 96%
    08:00 +10°C° 0.6 mm 3 m/S 735 mmHg 96%
    09:00 +10°C° 0.6 mm 3 m/S 735 mmHg 95%
    10:00 +10°C° 0.6 mm 3 m/S 735 mmHg 95%
    11:00 +10°C° 0.4 mm 3 m/S 735 mmHg 94%
    12:00 +10°C° 0.4 mm 3 m/S 736 mmHg 94%
    13:00 +11°C° 0.4 mm 3 m/S 736 mmHg 93%
    14:00 +12°C° 0.3 mm 2 m/S 736 mmHg 91%
    15:00 +13°C° 0.3 mm 2 m/S 736 mmHg 89%
    16:00 +13°C° 0.3 mm 2 m/S 736 mmHg 87%
    17:00 +13°C° 0.2 mm 2 m/S 737 mmHg 88%
    18:00 +13°C° 0.2 mm 1 m/S 737 mmHg 88%
    19:00 +13°C° 0.2 mm 1 m/S 737 mmHg 89%
    20:00 +12°C° 0 mm 1 m/S 738 mmHg 90%
    21:00 +11°C° 0 mm 1 m/S 738 mmHg 91%
    22:00 +10°C° 0 mm 1 m/S 738 mmHg 92%
    23:00 +9°C° 0 mm 1 m/S 738 mmHg 92%
    Mehr zeigen